RH
58 54 48 43 41 40 41 43 43 42 39 34 32 37 50 70 85 87 83 79 77 79 81 77 75 73 70 68 66 64 63 61 58 54 47 40 33 31 32 32 33 34 35 36 41 47 51 48 41 39 39 42 61 87 99 100 101 101 100 100 100 100 100 100 100 90 73 62 56 51 59 76 88 92
61 59 54 47 43 42 42 43 43 44 42 37 33 33 40 55 72 82 85 81 76 78 81 79 77 76 74 72 69 68 67 66 63 59 52 47 41 35 33 32 32 33 32 32 33 34 36 35 31 32 30 29 49 79 93 94 96 98 100 100 100 99 100 101 98 91 78 66 55 51 60 72 83 93
62 62 60 57 52 48 48 46 45 45 44 41 37 34 38 47 57 71 84 86 80 77 78 79 79 79 78 76 74 72 72 70 68 64 57 50 43 35 31 32 34 35 35 34 34 33 34 34 32 32 30 29 46 70 87 91 87 86 90 96 100 100 101 99 94 91 82 67 56 53 58 67 78 90
61 62 60 60 58 55 54 54 50 47 45 44 41 37 40 45 53 67 83 89 86 82 81 81 82 82 82 81 79 78 76 75 72 67 60 52 42 33 32 36 39 39 38 36 35 34 33 34 33 31 30 35 49 70 87 85 68 62 73 89 98 97 96 93 90 91 85 71 61 56 57 65 77 86
58 62 63 61 58 55 56 60 58 51 47 46 44 41 42 46 53 65 79 87 89 88 86 86 85 83 84 84 83 82 79 76 73 67 60 49 37 33 39 43 41 40 40 37 36 35 34 35 34 33 38 41 41 47 56 53 46 52 65 74 79 82 85 88 90 95 93 80 68 60 57 65 76 86
61 61 65 63 58 55 55 61 64 58 51 48 47 44 43 44 48 55 67 78 85 88 88 89 88 85 85 84 82 82 79 75 71 65 56 43 34 39 46 47 44 42 42 40 38 39 38 37 35 34 37 37 29 27 32 35 42 54 59 56 60 71 81 87 90 97 100 91 78 67 63 67 76 85
71 67 69 64 58 57 56 60 68 67 57 51 49 47 44 43 45 48 55 64 74 82 86 88 89 87 86 85 82 80 78 74 68 59 48 37 37 46 51 49 48 45 44 43 41 41 40 38 36 34 32 30 29 30 30 31 37 45 48 49 56 69 79 85 90 96 102 97 86 74 70 72 75 83
82 78 73 66 59 57 59 62 71 74 65 55 51 50 46 44 45 45 49 56 63 71 78 82 85 85 85 82 80 78 75 69 61 50 41 37 41 50 53 52 51 48 47 47 43 41 40 39 37 36 34 32 31 31 30 31 33 36 40 44 53 66 78 85 90 97 101 99 92 81 74 75 75 80
93 87 76 70 62 57 58 63 72 78 72 61 54 52 49 45 44 43 46 55 61 64 69 72 74 78 79 77 75 73 69 63 55 46 40 41 47 54 55 54 53 52 50 48 44 41 40 39 38 36 35 34 32 32 31 31 31 32 36 40 50 65 78 85 90 96 101 100 95 86 79 80 78 78
99 94 81 74 67 58 57 64 74 80 78 68 57 53 52 47 43 42 46 56 62 62 64 64 65 69 71 72 72 70 65 61 55 47 42 45 53 58 59 57 55 54 51 47 44 40 38 38 39 38 37 35 34 34 31 29 29 30 33 38 48 64 78 86 91 95 100 100 96 90 85 83 81 78
100 97 88 80 73 64 61 69 79 81 80 76 65 56 54 49 43 43 48 57 64 64 65 63 63 65 67 69 70 66 64 61 54 46 45 51 57 61 63 60 55 53 50 46 42 39 39 39 40 40 39 37 36 34 31 28 26 28 31 36 48 64 79 88 92 95 99 101 98 92 88 86 84 82
98 96 94 89 80 72 70 76 83 81 79 82 75 63 57 52 46 45 49 58 65 67 67 66 65 65 65 66 67 64 61 57 48 45 51 58 61 63 64 61 56 53 49 44 40 38 40 40 41 42 40 38 35 31 28 26 24 26 30 34 48 68 81 88 93 95 98 101 100 95 91 89 86 86
96 93 96 94 83 74 75 80 85 84 79 81 82 73 62 54 49 47 49 58 66 68 70 68 67 69 68 65 64 60 54 48 45 49 57 63 66 68 65 58 58 59 53 45 39 39 42 42 41 42 40 36 35 30 27 25 24 27 29 34 53 76 84 87 92 95 97 100 101 98 94 92 89 90
98 92 93 94 84 75 74 78 85 88 82 81 84 80 67 57 52 50 50 57 64 68 69 67 68 71 68 63 60 54 48 46 49 54 60 65 69 72 68 58 57 63 61 51 42 43 48 45 42 45 43 37 34 30 27 25 24 26 27 34 59 84 87 85 91 95 96 99 101 99 97 94 92 92
100 95 91 92 91 84 78 78 85 91 88 84 85 85 74 61 55 53 53 58 63 67 67 65 68 68 62 57 54 49 47 49 53 57 62 69 74 75 72 62 55 61 66 57 45 46 54 54 50 53 49 40 34 30 26 25 26 27 29 38 63 85 88 84 89 94 95 97 100 100 99 97 94 94
101 100 92 91 95 93 85 83 87 93 93 88 87 88 80 66 59 54 52 56 62 64 64 63 64 62 57 51 48 49 53 58 63 67 71 77 77 74 73 64 55 61 67 55 43 51 70 75 67 61 58 51 43 35 28 29 34 33 33 47 68 84 90 89 89 93 95 95 98 101 100 99 97 95
100 101 97 94 94 93 89 89 91 92 92 91 90 91 85 77 76 76 73 72 70 64 62 62 60 55 52 51 55 64 74 78 79 78 77 78 76 70 68 63 59 65 64 52 49 66 88 89 71 60 65 63 54 47 39 40 50 50 47 60 75 82 90 94 93 94 95 94 97 100 100 100 99 97
100 100 100 96 90 88 89 92 93 90 90 92 92 92 88 82 83 85 87 92 92 82 74 69 64 60 59 64 74 84 88 84 79 76 75 74 71 67 66 65 65 66 59 54 67 88 99 93 72 62 70 72 68 67 58 50 55 56 55 65 74 77 85 93 95 97 97 94 95 98 99 100 101 99
101 100 101 98 92 90 93 96 95 90 89 92 94 94 90 83 77 70 67 79 94 98 92 84 80 80 79 82 87 90 89 82 75 74 75 72 68 67 69 71 74 72 65 67 83 96 99 92 77 72 82 88 89 90 81 67 57 51 48 52 57 68 85 93 94 96 99 95 93 95 98 99 101 100
101 100 100 101 99 97 98 99 98 95 93 94 96 95 89 82 75 67 60 66 83 96 99 95 93 94 93 93 94 92 88 82 77 76 74 70 71 73 71 72 81 87 85 87 95 99 100 95 85 85 94 99 99 100 97 85 70 58 50 42 40 53 73 88 93 96 99 98 93 92 95 97 99 101
101 100 100 101 102 100 98 96 98 100 99 98 99 96 87 79 73 66 64 71 82 94 101 99 97 96 96 98 99 95 87 80 77 76 72 71 76 77 72 74 86 94 94 97 100 98 98 98 93 90 94 98 99 101 100 94 85 77 65 51 48 56 66 77 86 88 91 96 95 92 92 94 95 99
100 101 101 101 100 98 94 91 97 102 100 100 102 95 85 81 76 69 69 71 76 87 99 102 99 98 99 100 100 99 94 86 79 74 74 80 81 77 78 85 91 94 95 98 100 96 95 99 95 86 85 94 100 100 100 100 97 91 78 66 69 79 82 82 86 87 88 92 95 94 92 91 91 95
102 101 100 101 97 90 84 86 96 102 100 100 101 94 88 84 77 73 73 70 65 73 92 102 100 99 101 100 99 101 100 97 90 81 82 91 86 80 88 96 95 96 98 99 100 97 94 99 98 88 86 93 98 98 100 101 97 90 82 75 79 92 96 94 96 96 93 93 94 95 94 91 89 90
103 99 98 102 100 93 89 89 95 101 101 100 101 97 90 80 73 75 77 70 61 66 86 101 101 99 101 99 100 101 99 100 100 90 86 92 90 85 93 99 99 99 99 98 100 97 91 93 97 97 95 95 96 98 100 101 98 94 90 85 87 95 97 95 95 95 91 88 91 96 96 94 90 87
102 100 98 96 91 92 96 96 97 100 99 98 101 99 86 75 80 86 79 69 66 69 84 99 101 99 101 100 100 102 99 99 102 96 91 95 95 90 91 97 101 98 92 93 99 96 89 89 92 94 94 93 95 99 100 100 100 100 98 96 97 99 97 93 94 94 86 78 84 96 99 98 96 90
95 94 94 87 79 84 94 95 96 98 94 93 99 100 91 88 97 95 79 74 82 85 89 99 101 99 101 100 99 101 100 99 101 100 98 99 98 94 94 100 101 90 83 92 101 98 93 90 87 87 88 88 92 99 101 100 100 99 98 98 100 100 99 96 95 95 87 73 78 96 100 96 98 96
83 75 79 80 76 83 92 95 95 92 86 89 98 101 99 99 102 96 85 85 95 98 98 101 102 100 100 101 100 101 101 100 99 100 100 100 99 98 97 99 95 85 82 91 97 97 94 88 84 87 87 82 86 95 99 99 100 100 98 98 99 99 100 99 97 98 94 80 77 93 100 96 98 100
75 63 71 77 77 83 88 89 91 86 83 91 99 101 100 100 101 100 96 93 98 102 102 100 98 98 98 96 92 92 97 100 100 100 100 100 100 100 97 96 94 90 89 90 90 91 90 84 81 85 84 76 77 88 96 98 100 100 98 97 98 98 99 100 97 99 99 88 82 91 99 97 97 100
74 63 69 79 86 91 87 84 89 92 92 96 100 100 100 100 100 101 99 99 101 101 99 96 95 96 96 91 83 82 89 95 96 97 99 99 101 101 99 97 97 96 91 86 84 85 84 79 76 78 78 73 71 79 90 95 98 101 100 98 98 97 99 100 100 100 99 92 88 91 94 93 93 98
86 74 74 82 92 97 91 88 95 101 100 99 100 100 100 100 100 100 99 100 101 97 94 94 94 95 95 91 87 88 91 93 95 96 98 101 101 100 97 94 94 95 90 82 80 81 79 75 71 71 74 72 69 74 82 86 92 99 101 100 100 99 99 99 98 97 98 96 94 95 96 94 91 91
95 85 83 87 93 96 94 93 95 97 97 98 100 100 100 99 101 100 95 93 92 91 92 95 95 96 96 92 91 94 96 97 98 100 101 102 102 100 98 93 92 95 93 81 74 75 75 71 68 67 68 67 65 70 74 75 83 95 101 100 99 99 100 100 98 96 96 97 96 95 96 97 94 91
98 89 89 94 97 99 99 98 98 98 99 100 100 99 100 100 101 99 94 91 92 92 96 100 100 97 94 90 91 96 98 97 99 101 101 102 102 101 99 93 90 97 98 84 72 69 69 67 65 63 62 61 61 64 68 68 73 88 99 99 97 99 101 100 99 99 97 94 92 94 98 100 98 98
101 92 92 98 101 101 100 100 101 100 100 100 99 98 98 98 100 101 99 97 96 95 98 101 98 92 91 94 97 100 98 96 99 102 101 100 101 101 98 94 91 94 94 86 76 71 67 64 62 61 59 57 58 62 65 64 66 78 89 90 90 98 102 98 97 101 101 95 89 89 96 99 98 98
101 96 96 99 100 100 100 100 100 100 100 100 100 99 96 95 97 100 100 98 95 94 98 100 96 93 95 98 98 98 95 93 97 102 101 101 102 97 91 93 98 97 94 92 88 82 73 64 60 63 64 61 60 62 63 62 62 69 79 82 85 94 101 99 95 97 101 100 93 89 92 97 97 96
101 99 100 101 100 100 100 97 94 97 100 101 100 100 98 96 97 99 100 98 95 95 98 98 96 96 97 92 88 89 91 91 95 99 99 99 102 98 90 92 100 102 99 99 98 93 86 76 70 73 76 74 68 64 62 61 61 64 70 78 86 91 96 100 98 96 98 102 99 94 94 97 96 94
100 100 100 100 100 100 101 97 91 92 96 97 98 100 99 97 99 100 98 94 92 94 98 98 96 96 95 88 84 87 91 91 91 96 98 94 93 96 94 92 97 101 100 100 101 99 96 94 90 88 89 86 77 69 64 61 61 62 65 74 84 91 96 101 99 94 95 99 96 93 95 99 100 99
100 100 100 100 100 100 100 99 94 93 94 92 93 100 100 96 97 99 98 93 89 90 96 96 90 90 94 95 93 94 97 95 89 92 99 96 89 91 92 89 90 95 97 98 100 100 100 101 98 95 96 92 83 78 75 69 65 64 62 65 76 89 98 102 100 94 93 97 98 97 98 99 99 99
100 100 100 100 101 101 101 100 97 97 97 91 90 99 102 97 94 96 98 98 94 93 97 96 88 86 94 100 100 99 99 96 88 86 93 97 93 93 95 93 93 96 98 99 99 99 100 101 97 97 98 91 84 88 94 90 84 81 72 64 69 80 88 95 100 99 95 95 97 100 101 100 99 100
100 101 100 100 101 102 103 103 99 98 97 90 88 96 103 101 98 95 96 100 100 99 99 97 90 87 90 97 101 100 96 93 87 82 84 89 91 93 95 97 99 100 99 96 92 93 98 100 100 100 96 84 80 91 101 101 99 97 88 76 72 74 79 88 99 100 95 92 96 100 100 97 96 99
101 101 100 100 101 102 102 99 96 98 99 92 86 92 100 101 100 99 99 99 99 100 101 99 94 90 91 96 102 102 96 91 86 83 83 84 87 90 93 96 98 99 97 93 88 88 93 96 97 98 94 87 87 95 100 99 99 101 98 91 83 77 78 89 100 99 93 92 97 101 99 94 92 97
101 102 102 101 101 102 100 96 95 99 102 97 90 90 96 99 100 101 99 96 94 98 100 100 98 96 95 98 102 101 96 90 85 85 87 86 86 91 96 97 97 96 95 92 87 84 88 91 91 91 91 90 94 101 101 96 95 98 100 99 93 85 82 89 96 95 92 94 97 97 98 98 97 97
100 102 102 101 101 101 101 100 100 100 101 101 97 92 92 98 101 100 99 97 96 97 97 98 100 100 99 100 101 98 92 87 86 88 91 91 92 96 99 100 98 95 94 93 88 86 89 90 89 93 94 89 91 100 102 96 93 97 100 101 99 95 93 94 96 95 94 97 96 93 95 96 93 93
101 101 101 101 100 98 97 99 101 98 95 99 101 94 90 97 101 100 100 101 100 99 99 99 100 100 100 101 98 92 87 87 89 91 92 92 94 95 96 98 97 95 95 96 96 96 96 92 92 99 98 87 85 96 103 98 94 96 99 100 100 100 99 99 99 97 96 97 96 95 95 93 91 94
102 101 102 100 98 98 98 97 97 95 89 90 96 97 94 97 101 100 99 100 100 100 101 100 100 101 101 96 90 86 88 90 92 93 93 93 93 93 94 96 96 95 97 99 100 101 100 97 98 100 95 87 87 93 96 94 92 92 96 100 101 100 100 100 98 98 97 95 96 98 96 92 94 99
100 100 101 101 99 100 101 99 98 97 89 83 90 99 99 98 100 101 100 100 101 100 100 100 101 99 95 89 85 85 90 92 93 94 97 97 94 93 95 96 97 98 98 99 100 100 100 100 101 98 92 93 97 95 90 90 88 85 91 100 101 99 100 101 99 100 99 96 98 101 95 89 95 102
Wind_Speed
32 32 34 36 37 37 36 35 35 34 34 34 33 34 34 33 33 31 31 33 31 28 28 28 29 29 28 28 28 28 27 26 26 28 28 29 31 31 31 31 33 33 33 32 31 31 31 31 32 30 29 28 27 26 25 25 26 26 27 27 28 28 28 30 33 35 36 38 43 43 39 38 37 37
32 32 33 35 36 36 36 36 35 35 35 34 33 33 33 32 35 33 33 36 33 27 27 28 28 28 27 27 29 28 28 27 28 30 31 31 32 33 33 34 35 35 35 34 33 33 32 32 32 30 29 28 27 26 26 26 26 27 27 27 27 27 28 32 34 34 34 36 42 43 40 39 37 35
32 31 31 33 34 35 35 36 36 35 35 35 33 33 33 32 34 34 33 37 36 28 28 29 29 29 28 28 29 29 30 30 31 32 33 33 33 33 34 34 34 34 34 33 32 31 31 30 30 29 28 28 27 26 26 26 27 28 28 28 27 27 30 35 35 32 32 34 40 44 42 40 39 37
34 31 30 30 31 33 34 34 35 35 35 35 34 33 33 33 33 33 33 38 38 32 30 31 30 30 30 30 31 32 33 33 33 34 35 34 33 33 33 32 31 31 31 30 29 28 27 28 28 28 28 27 26 25 25 26 27 29 29 28 28 30 34 37 36 32 30 32 38 44 44 42 40 41
39 33 30 29 29 31 34 34 34 35 34 34 34 34 34 34 34 34 34 38 39 35 33 33 32 33 33 34 34 34 34 34 34 34 35 34 33 31 30 29 29 29 28 27 26 25 25 26 27 27 27 27 28 27 27 27 28 29 29 31 34 35 36 37 37 32 29 30 36 42 45 44 41 42
41 36 32 29 28 29 34 35 34 34 34 34 35 34 34 34 34 34 35 37 39 37 35 34 34 34 33 34 34 33 33 33 33 34 34 33 30 28 27 27 27 27 26 25 25 25 25 25 27 27 28 28 29 29 29 28 28 28 30 33 36 36 36 37 36 31 27 28 33 39 43 45 42 42
40 38 34 30 28 28 33 35 34 34 34 34 35 35 34 34 34 34 34 36 37 38 36 35 34 34 33 34 33 32 32 32 33 34 33 31 27 25 24 25 27 27 26 25 25 25 26 26 27 28 29 29 28 28 29 29 30 29 30 32 33 34 35 36 35 29 26 26 30 35 40 43 42 40
39 38 35 32 28 28 32 34 34 33 33 33 34 34 34 34 34 33 33 35 36 36 36 35 35 34 33 33 32 31 31 32 33 33 31 28 26 24 23 25 27 27 26 26 26 26 26 26 27 27 28 28 27 27 28 29 30 29 29 30 31 32 34 34 33 29 24 23 26 31 36 40 41 39
43 39 36 33 29 28 32 34 33 33 32 32 33 33 33 33 32 31 32 33 34 35 36 36 35 34 33 33 32 31 31 31 32 31 29 26 24 23 23 24 26 27 27 26 26 26 26 26 26 26 27 27 26 27 27 28 29 29 29 29 28 30 31 33 32 28 23 21 23 27 32 36 39 38
46 41 37 34 30 29 32 34 33 32 31 31 32 32 32 30 30 30 30 31 32 34 35 35 34 34 34 33 32 31 31 31 31 30 28 24 22 22 23 24 25 25 25 25 25 25 25 26 26 25 25 25 25 26 26 27 27 27 27 27 26 27 29 30 31 28 22 19 20 24 27 31 35 36
47 42 38 34 32 31 32 33 32 31 31 30 31 31 30 28 28 29 29 29 31 33 34 34 34 34 33 33 33 31 31 31 30 29 26 23 21 21 23 24 24 23 23 23 23 24 25 25 24 23 23 23 23 24 25 25 25 25 25 24 24 24 26 28 29 27 22 18 17 20 23 26 31 33
45 43 39 36 34 33 32 32 31 30 30 30 30 30 29 28 28 28 28 28 30 32 33 34 34 33 33 34 33 32 31 31 29 26 24 23 21 21 22 23 22 21 21 22 22 21 22 22 22 22 21 20 20 22 22 23 23 22 22 22 21 21 23 25 27 27 22 17 16 17 19 22 25 28
43 44 41 36 33 32 30 31 31 29 28 29 29 28 28 28 28 28 28 28 29 31 33 34 34 34 34 34 33 32 31 29 26 23 23 23 21 21 23 22 19 19 21 22 21 17 16 19 18 17 17 16 17 19 19 19 20 20 20 20 17 18 21 23 25 26 22 16 14 14 15 18 21 22
42 43 42 37 32 30 30 31 31 30 29 29 28 27 27 27 28 27 27 28 29 30 32 34 34 35 36 36 34 32 30 27 25 24 23 23 21 21 23 20 16 15 18 19 16 11 12 15 14 12 14 14 15 16 17 17 18 18 18 17 15 16 19 21 22 23 23 18 13 12 12 14 16 17
43 41 41 38 33 30 30 31 32 31 30 29 29 28 27 28 28 28 28 29 30 30 32 33 33 35 37 36 32 30 28 25 24 23 22 22 21 20 22 19 13 10 13 15 11 7 8 11 10 9 11 11 12 14 14 14 15 16 16 15 14 14 16 19 20 21 22 19 14 11 10 10 12 13
43 40 39 38 36 32 30 30 31 31 29 29 29 28 27 28 28 28 28 29 29 30 31 32 33 34 34 32 28 26 23 22 21 21 20 20 20 19 19 18 12 8 10 12 9 5 5 7 8 8 8 9 10 11 12 12 13 14 14 13 12 12 13 15 17 19 21 20 15 11 9 7 9 10
42 41 37 35 35 32 29 28 29 29 28 28 28 27 27 28 27 25 25 25 26 26 26 28 30 30 29 26 22 19 18 17 18 19 19 18 18 16 15 14 10 6 8 9 6 3 4 6 7 7 6 6 7 8 9 10 11 12 13 12 11 11 11 11 13 16 19 20 17 13 10 7 6 7
37 39 36 33 32 30 28 27 27 26 26 25 26 27 28 28 28 26 25 24 24 23 23 24 25 24 23 21 18 15 15 16 16 17 17 16 15 14 11 9 7 5 6 6 3 1 3 6 6 5 4 3 4 6 8 9 11 12 13 13 12 12 12 11 11 12 16 19 18 15 11 8 5 5
30 35 36 34 32 30 29 27 26 24 23 23 24 26 28 28 28 28 27 26 26 25 25 24 21 19 18 18 16 14 13 14 15 15 14 13 12 10 7 5 4 5 5 4 2 2 5 5 4 3 2 0 2 5 7 8 9 11 12 14 14 13 13 12 11 10 12 15 17 16 13 10 7 5
24 28 32 33 32 31 29 27 25 24 22 21 22 24 26 27 27 28 28 26 27 28 26 25 23 20 18 17 16 14 14 14 14 14 14 13 10 7 5 3 2 2 3 2 2 3 5 5 2 2 4 3 4 5 7 9 10 10 10 11 12 13 13 12 11 11 11 12 15 16 14 12 10 7
20 23 26 27 28 28 27 24 24 25 24 23 22 21 23 25 26 27 27 26 26 26 25 24 23 19 16 16 16 14 14 14 14 14 14 12 9 6 5 4 2 1 2 2 2 3 4 6 4 1 4 4 5 5 7 9 11 9 8 7 7 9 11 11 12 12 11 11 13 15 15 14 12 9
16 17 19 21 22 23 23 22 23 25 26 25 22 20 21 24 26 28 27 26 27 26 23 22 21 17 14 15 16 16 14 13 14 14 12 10 9 7 5 3 2 1 1 1 1 2 2 5 6 0 4 3 6 7 7 9 9 7 5 3 4 5 7 9 9 10 11 11 11 12 14 15 14 12
14 13 15 18 20 21 21 21 22 24 26 27 24 20 20 23 26 27 26 26 28 27 25 23 22 19 16 14 13 14 14 14 15 13 12 11 9 7 4 1 1 1 1 1 3 3 3 5 5 3 2 3 5 6 7 8 8 6 4 3 3 5 6 7 8 8 9 9 9 10 12 13 14 14
15 14 16 19 21 22 21 21 21 23 25 27 25 22 22 24 25 24 24 26 26 27 27 26 25 23 20 16 13 12 12 14 17 16 15 12 9 7 6 4 4 5 4 3 5 4 5 5 4 6 6 6 6 6 6 8 9 7 5 3 2 4 7 7 8 9 9 9 7 7 9 10 12 14
19 17 17 18 21 23 23 22 21 22 23 24 25 24 23 23 22 21 22 23 23 24 26 26 27 27 25 22 20 18 15 15 16 17 16 13 11 9 7 6 8 8 5 4 6 6 5 5 4 5 5 6 8 7 7 8 8 8 6 5 4 4 6 7 8 8 8 8 7 6 6 7 7 10
24 21 18 19 21 22 22 21 21 21 21 22 24 26 24 20 19 20 20 20 21 22 24 24 25 28 29 27 24 23 22 20 18 18 16 15 14 12 10 10 11 9 5 5 6 7 6 5 5 6 5 4 7 9 9 9 8 7 5 5 6 6 7 7 6 6 6 5 5 6 6 5 4 7
27 23 19 20 22 20 18 20 21 20 20 22 24 25 23 19 17 19 19 19 20 21 21 21 22 25 29 31 30 28 26 24 22 20 19 18 16 14 13 14 13 9 6 6 8 9 8 6 5 5 4 4 6 7 9 10 10 8 5 5 7 8 7 6 5 5 4 2 4 6 6 4 2 3
28 25 21 22 22 19 17 19 21 20 19 21 23 23 22 20 18 19 20 19 19 21 21 21 21 21 24 29 32 31 28 25 23 22 21 20 19 17 15 14 13 10 9 9 10 11 10 7 5 4 3 4 6 5 7 9 12 13 10 8 8 9 9 7 5 4 3 1 4 7 6 4 3 0
27 24 23 23 21 17 16 18 20 20 19 21 22 21 21 21 21 21 20 19 18 20 21 21 21 20 21 23 24 24 24 25 24 22 20 19 18 17 14 13 11 10 10 11 12 13 11 8 6 5 3 3 5 5 6 8 11 13 14 13 11 10 11 10 9 6 5 4 5 6 6 4 4 3
26 24 24 24 19 14 15 18 19 20 20 21 22 21 21 22 23 23 20 18 18 20 21 21 20 18 17 17 16 16 18 19 19 18 17 16 16 15 13 12 10 9 10 12 14 14 12 9 7 6 4 3 3 3 4 6 8 11 13 15 15 13 11 11 11 11 10 9 8 7 7 5 5 5
22 24 23 20 16 14 15 17 17 18 20 22 23 23 21 22 24 25 20 17 19 21 20 18 16 14 15 16 16 16 16 15 14 15 15 14 14 13 12 12 10 8 10 13 15 15 13 10 8 6 4 3 2 3 2 4 7 8 9 11 14 15 14 12 12 13 12 10 9 8 9 9 8 7
16 20 19 17 16 16 16 17 18 18 19 21 23 23 23 22 24 24 22 18 18 19 18 14 12 14 17 19 17 16 16 15 14 13 12 12 11 11 11 11 10 9 10 13 14 14 13 12 10 8 6 4 3 3 2 2 5 4 4 6 10 14 15 15 14 13 11 9 8 9 10 11 12 12
14 16 17 18 19 18 17 19 20 19 18 19 20 21 23 24 23 23 24 22 20 19 16 13 14 18 20 19 18 18 17 16 14 13 12 11 10 10 10 9 8 8 9 11 13 14 14 13 12 9 7 5 4 3 2 1 2 2 1 3 6 11 14 14 14 13 12 10 9 8 8 8 7 9
13 16 19 21 22 21 20 20 20 19 18 18 19 20 22 24 24 23 24 24 22 20 16 14 17 20 20 19 20 19 18 17 15 13 12 11 10 10 9 8 7 7 7 8 11 12 13 13 12 10 7 5 4 3 3 1 1 1 0 0 3 8 11 11 12 13 12 10 9 8 9 9 7 5
15 18 22 22 23 24 22 20 19 18 17 17 16 17 20 24 23 22 24 24 23 21 18 17 20 22 20 19 19 18 17 17 16 12 11 12 12 10 9 8 7 6 6 7 8 9 11 12 11 9 6 3 2 2 3 2 2 2 2 2 2 6 8 9 10 11 10 9 8 8 10 10 9 7
15 19 23 23 23 25 22 18 17 18 17 17 15 14 17 21 20 18 21 24 23 21 19 20 22 22 20 18 17 16 14 15 15 12 10 12 12 10 10 10 9 6 6 6 6 8 9 10 10 10 7 3 0 1 3 4 4 3 3 3 2 5 8 8 7 7 8 9 9 10 11 12 12 11
13 16 21 20 20 22 19 15 16 16 16 18 17 13 13 18 20 17 18 21 23 21 20 22 24 23 20 18 17 15 13 12 13 13 13 13 12 10 10 11 10 7 7 7 6 7 9 9 9 9 7 4 1 2 3 3 3 3 3 4 4 5 7 8 5 4 6 8 10 10 12 13 14 14
11 13 17 17 17 18 16 14 14 13 12 16 18 14 11 13 18 19 18 21 23 22 22 24 25 22 19 18 18 17 14 11 11 14 16 16 15 12 10 10 10 8 7 7 7 7 8 8 8 8 7 5 3 4 6 4 2 2 4 6 7 8 8 9 7 3 3 6 9 10 12 13 13 12
8 11 13 14 14 15 14 13 12 10 8 13 18 16 12 11 15 18 19 21 24 24 24 26 27 23 20 19 19 17 14 11 11 12 15 18 19 17 15 13 12 11 10 9 9 9 7 6 7 8 7 6 3 4 4 3 3 2 3 6 8 8 8 9 9 4 1 4 7 8 9 11 11 10
7 8 10 11 12 12 11 11 10 7 5 9 16 18 14 10 11 15 18 20 22 24 24 26 27 24 20 20 20 18 14 12 10 10 13 16 19 20 19 18 16 14 13 12 12 11 10 8 8 8 7 5 2 2 1 2 4 3 1 4 6 7 8 10 9 5 3 4 6 4 5 7 8 8
8 6 7 8 9 10 11 10 9 8 6 6 12 17 16 11 9 13 17 19 21 22 23 24 25 23 20 20 20 18 14 12 10 10 11 13 16 18 20 20 19 17 15 15 15 14 13 11 10 9 8 5 4 3 3 3 5 4 0 1 5 6 7 10 10 7 3 4 4 4 5 6 6 6
7 6 5 5 6 8 11 12 11 10 8 7 9 16 18 12 9 12 17 19 21 22 21 21 23 23 22 22 20 16 13 11 11 11 11 11 13 16 17 19 19 19 18 17 17 16 16 15 13 12 10 8 7 5 4 4 6 4 0 1 4 5 5 8 10 8 5 4 4 4 6 5 6 7
7 5 5 4 3 5 10 14 13 12 10 7 8 15 19 14 9 13 18 19 20 21 20 20 23 25 24 20 16 13 12 12 11 12 12 12 12 14 15 16 17 17 17 17 16 16 17 16 15 12 11 10 9 7 6 6 7 6 2 2 3 3 4 6 8 8 8 8 6 5 6 7 8 8
9 7 5 4 3 3 7 12 14 14 15 12 7 12 18 14 9 13 18 19 19 20 20 22 25 24 20 16 14 12 13 13 13 13 14 13 12 13 14 14 15 15 16 17 17 17 17 16 14 14 13 12 12 11 10 9 9 8 4 4 5 4 3 3 3 5 7 9 8 7 6 6 8 8
10 8 7 5 3 2 5 9 9 11 16 16 11 11 14 13 10 12 16 18 19 21 23 25 23 19 15 13 12 12 13 14 14 14 15 13 13 12 12 12 12 12 14 16 17 19 20 18 16 15 14 12 11 11 12 11 8 7 6 6 6 5 4 4 5 5 6 8 9 7 5 6 7 7
Wind_Direction
265 265 266 268 268 268 269 269 269 268 269 268 267 264 260 259 261 265 268 267 264 265 265 265 267 268 268 269 272 273 275 276 278 282 284 286 289 290 289 286 284 283 280 279 279 280 281 282 281 280 280 280 283 288 290 288 287 285 285 285 283 284 285 283 280 274 267 261 258 261 272 287 295 285
262 263 265 266 266 267 268 269 269 268 269 268 267 264 261 258 257 258 263 267 266 263 263 265 267 269 268 269 272 274 274 276 279 282 284 286 288 289 287 284 282 281 280 279 279 279 280 280 279 278 276 275 278 285 286 284 284 284 283 282 281 285 284 276 272 271 268 261 256 258 267 283 298 296
259 261 264 265 265 266 267 268 269 268 268 268 267 265 262 259 258 258 259 264 266 263 262 265 267 268 268 269 271 273 275 278 280 283 285 287 288 288 286 283 281 280 279 279 279 279 279 278 277 277 274 272 275 282 284 284 284 281 280 282 282 282 275 268 268 270 268 261 256 256 262 278 296 304
258 258 261 265 267 267 266 266 267 267 267 267 267 266 263 260 259 259 257 260 263 263 264 265 266 266 268 270 271 273 275 278 280 283 285 287 288 288 286 281 279 278 278 279 280 279 278 277 276 274 272 271 274 280 283 283 281 278 278 279 276 270 267 266 268 269 266 262 258 256 261 273 290 304
256 256 259 265 269 269 267 266 266 266 266 267 267 265 264 261 259 258 256 259 262 264 263 264 265 266 267 269 270 272 274 277 280 282 284 286 288 287 284 280 277 278 280 280 280 279 277 275 274 272 271 270 269 271 276 277 278 279 278 273 267 264 264 265 268 270 268 264 260 258 260 268 282 300
256 257 259 264 268 270 268 266 265 265 264 265 265 264 263 261 260 259 257 259 262 263 263 264 265 266 267 268 269 271 274 277 279 281 283 286 286 282 280 280 278 278 280 279 278 277 274 272 270 268 268 269 267 267 270 273 275 278 277 272 268 266 264 264 268 272 272 267 262 261 261 265 276 294
256 257 259 263 269 273 271 267 265 264 263 263 263 263 263 262 261 261 260 259 260 262 263 264 265 266 266 268 270 272 274 276 278 280 283 284 281 278 279 280 279 278 278 277 276 274 272 271 270 269 269 269 268 266 265 267 270 273 275 274 271 267 263 264 267 271 273 271 265 264 265 266 273 291
255 254 257 260 267 274 272 269 266 263 261 261 261 262 262 262 262 263 262 260 259 261 262 263 263 265 266 268 270 271 273 276 278 280 281 281 278 276 278 278 278 278 277 277 275 274 274 274 272 272 271 269 266 264 263 265 269 273 276 276 273 268 264 263 265 269 273 274 268 266 268 268 271 287
257 252 255 259 263 271 272 269 266 264 261 259 259 260 260 261 263 263 262 261 260 260 260 261 262 264 265 267 268 269 271 274 277 278 279 278 278 278 277 275 276 278 278 277 277 276 275 275 273 272 271 269 266 264 264 266 269 272 275 277 275 270 265 261 263 267 272 275 272 270 270 269 270 281
260 253 253 258 260 265 270 269 266 265 262 259 257 258 259 261 263 263 262 261 260 259 259 259 260 261 262 264 265 267 270 273 276 278 277 277 278 279 277 275 276 279 279 279 278 277 274 272 272 272 271 270 266 264 264 265 268 272 275 277 277 273 265 261 261 264 269 274 274 274 275 273 272 277
262 255 252 256 258 261 266 268 267 265 263 261 258 257 258 259 260 261 261 260 259 259 258 258 258 258 259 261 263 265 268 272 273 275 277 278 276 276 278 279 279 279 280 278 276 276 275 274 274 273 272 270 266 263 263 265 268 272 275 278 280 277 268 261 260 262 266 272 274 277 280 278 275 276
262 257 252 254 258 260 263 266 267 264 263 262 259 258 257 257 258 259 258 258 258 257 257 257 257 258 258 258 260 263 264 267 269 272 277 280 278 278 280 281 283 284 282 277 274 274 276 274 273 274 274 272 267 263 262 265 268 272 277 280 283 281 271 262 260 261 263 269 271 276 284 282 279 279
262 258 254 254 256 258 259 263 265 264 262 262 260 258 256 255 255 257 257 257 257 256 256 255 254 255 256 256 257 259 261 263 267 271 276 278 281 284 283 281 286 289 284 280 279 279 274 267 266 270 272 268 264 264 265 267 270 274 278 281 285 286 275 265 262 262 261 265 267 271 282 285 284 283
260 259 255 252 253 256 258 260 263 262 261 261 260 257 254 253 254 255 256 256 255 255 254 252 252 252 253 254 255 257 259 263 267 270 273 278 282 284 282 283 287 286 283 285 286 276 262 262 264 266 267 263 260 262 263 265 269 273 276 278 284 290 282 269 265 264 260 261 263 264 274 285 286 286
258 258 256 251 251 255 258 259 261 261 259 259 260 256 252 251 252 253 254 255 254 253 252 251 250 251 251 253 254 257 260 262 265 267 270 275 277 278 280 283 285 283 283 288 288 261 248 263 268 262 263 265 262 263 263 263 266 270 272 275 281 289 288 277 269 266 261 258 258 257 262 276 285 286
258 257 255 251 250 255 257 256 259 260 259 258 257 256 252 252 252 252 252 253 252 250 251 251 249 249 251 253 253 255 259 261 263 264 265 266 267 269 274 278 282 286 284 285 282 255 250 269 266 257 263 270 269 268 265 261 264 267 269 273 278 283 289 285 274 268 262 257 254 252 253 263 277 287
258 255 254 250 249 252 253 253 255 257 257 256 254 252 251 249 249 249 249 251 253 251 249 249 251 249 249 251 251 252 256 256 254 252 250 253 257 261 266 274 282 283 274 276 275 250 264 277 261 249 260 271 275 278 271 262 263 264 266 273 277 275 280 286 280 272 266 260 253 248 246 245 260 280
260 254 253 249 246 248 249 249 251 253 254 254 251 247 245 243 242 240 239 239 245 252 252 247 247 248 246 247 246 243 244 242 239 239 242 244 248 253 263 275 278 263 258 265 265 269 311 294 261 237 242 261 280 294 288 277 273 270 269 271 272 270 274 280 282 278 272 264 255 249 245 237 240 262
264 254 252 250 247 248 249 248 249 250 252 252 249 245 243 242 242 243 242 235 229 237 249 250 244 242 240 238 236 232 231 233 234 235 234 233 237 244 255 266 262 253 257 259 265 334 345 319 266 212 181 176 333 322 312 305 299 290 282 276 271 270 274 277 279 279 277 270 260 252 248 241 231 239
269 251 247 248 248 248 248 246 246 249 250 248 246 244 241 241 242 243 246 242 226 222 235 246 245 238 232 230 230 227 228 232 233 228 221 219 223 228 223 209 206 248 269 277 297 332 350 341 311 162 127 71 24 355 335 326 319 309 297 288 278 272 272 276 278 276 274 273 265 256 253 249 239 232
273 252 242 243 243 243 243 241 243 247 248 246 244 243 240 239 240 239 240 241 231 221 226 239 243 239 233 231 228 226 228 229 222 218 215 209 200 194 187 166 131 204 258 280 321 333 351 348 340 133 125 72 38 24 356 337 327 316 305 299 289 277 276 280 282 280 275 274 270 260 256 255 248 238
275 253 243 240 236 237 236 236 240 244 244 243 243 243 240 238 239 238 235 233 227 220 220 230 237 239 236 229 223 219 222 224 218 210 201 190 183 177 174 149 97 93 158 174 284 296 335 341 336 282 149 95 51 36 7 347 338 330 318 306 291 280 281 283 282 280 277 276 275 267 260 258 255 248
275 255 245 240 235 235 234 233 239 242 238 238 242 245 244 242 240 236 232 229 224 218 212 214 221 228 230 224 216 211 209 216 220 204 180 180 188 184 185 212 336 21 84 144 240 258 311 329 345 24 64 52 49 43 18 7 11 16 10 342 295 285 288 287 281 276 272 272 275 273 267 263 259 257
273 259 247 242 238 238 237 234 238 240 235 233 239 245 246 245 244 238 230 224 222 218 211 205 205 214 222 223 222 222 214 215 218 205 189 195 205 201 212 247 282 285 282 267 250 261 300 312 346 27 19 2 10 33 45 37 33 33 25 11 331 310 305 298 293 287 277 269 265 269 274 271 263 260
261 257 248 240 235 236 239 238 236 236 235 234 237 244 247 249 249 243 230 220 218 219 214 205 201 204 211 214 217 223 224 221 219 211 207 216 221 216 224 260 284 277 251 221 241 261 288 302 330 6 12 5 4 19 52 57 49 43 33 30 32 355 327 312 306 305 295 275 249 237 255 269 269 265
250 252 247 239 236 237 240 239 234 231 231 231 234 241 249 253 249 241 229 215 212 215 212 206 203 205 208 209 209 212 218 221 221 220 224 231 229 225 237 261 270 257 198 177 227 257 276 291 315 338 356 20 16 22 44 55 59 63 46 28 31 13 347 335 324 320 315 290 237 217 230 246 271 280
247 251 249 243 243 243 240 236 233 230 228 226 227 234 242 245 237 230 225 212 205 209 209 205 205 207 209 210 208 207 210 215 219 223 230 236 238 238 243 248 250 240 212 209 228 243 259 273 294 315 335 12 25 36 47 44 46 57 54 35 29 18 8 4 353 344 341 307 208 203 215 214 215 308
244 249 250 248 249 248 238 228 226 228 227 222 220 221 226 227 220 217 219 212 202 204 207 209 212 213 211 212 211 209 209 211 216 223 229 234 239 243 244 243 244 242 234 227 225 230 241 253 270 283 305 5 14 31 49 41 41 48 52 52 43 30 25 23 8 2 15 53 176 188 198 186 162 81
239 241 243 247 252 250 235 220 217 223 224 219 217 215 214 215 214 214 215 212 205 203 206 210 216 216 214 214 214 212 213 215 218 223 226 228 231 234 237 239 239 234 223 216 216 223 231 237 253 267 286 348 357 12 40 42 44 49 48 50 50 41 36 37 31 32 56 91 133 159 170 159 136 110
232 232 235 242 246 238 222 214 214 219 218 213 213 214 212 211 213 216 217 212 204 202 205 211 215 213 209 206 199 194 199 205 209 213 217 220 222 223 227 231 229 219 209 208 212 219 228 235 242 254 275 314 334 356 26 39 49 54 53 51 50 46 46 51 49 51 67 85 99 114 124 119 111 105
220 223 226 230 230 220 212 209 207 212 214 212 211 211 211 209 211 216 220 210 199 200 204 210 213 206 195 189 185 184 188 191 195 201 208 213 214 214 219 223 221 210 201 202 207 215 225 232 236 240 257 287 305 312 346 36 52 61 66 61 53 48 47 51 52 51 58 70 78 85 94 96 99 113
208 212 211 213 215 214 210 205 203 208 214 214 210 208 208 206 208 215 219 209 200 202 207 208 203 192 186 185 184 186 186 183 183 189 192 194 195 198 206 211 208 203 201 201 204 211 220 228 234 238 250 270 277 274 296 32 56 69 74 64 57 54 49 45 46 45 47 57 72 87 97 93 87 96
201 197 195 201 208 209 203 199 203 209 211 209 206 205 205 204 205 213 218 214 208 207 207 202 191 185 185 185 184 183 184 182 180 182 184 184 183 187 196 202 197 198 205 205 206 210 215 222 229 235 243 256 267 269 279 354 70 87 50 33 57 61 52 42 42 46 46 47 56 81 107 107 89 84
188 182 188 198 204 203 198 194 197 204 205 202 200 199 201 202 203 209 216 217 216 213 206 194 188 185 183 183 182 182 186 187 187 188 189 192 191 184 185 187 176 169 175 187 200 211 212 212 217 224 228 233 244 255 261 258 130 133 218 278 75 71 62 48 43 48 51 47 48 68 93 101 106 105
176 176 187 196 199 197 195 192 196 201 202 200 198 196 198 199 199 205 213 216 216 217 208 194 189 187 183 181 183 183 182 186 191 191 188 194 199 193 191 196 186 166 162 167 181 198 203 197 197 201 205 210 223 238 246 240 198 182 198 201 131 91 82 64 44 42 50 53 53 65 77 82 91 103
174 178 187 192 194 195 195 196 201 206 207 203 197 190 194 197 195 198 208 212 213 215 208 195 190 188 184 183 185 181 176 179 187 190 191 198 204 202 201 209 210 200 192 183 173 177 182 181 184 187 190 195 178 201 222 229 223 207 202 201 163 114 103 87 53 33 43 53 54 59 69 72 73 77
167 175 185 190 193 197 201 203 204 207 212 209 199 179 181 198 199 194 199 206 210 212 208 197 190 188 188 191 191 187 182 184 190 195 199 205 211 211 205 208 214 210 190 174 164 164 168 177 186 185 182 189 98 86 141 194 210 203 191 188 182 163 136 115 87 38 41 56 61 64 67 67 65 65
156 160 177 188 194 199 202 205 208 212 214 210 199 177 162 187 199 198 199 203 206 208 206 198 191 189 193 198 197 194 195 201 204 204 204 206 210 212 204 197 199 199 184 169 166 166 168 181 194 192 190 198 167 106 103 109 110 140 172 176 185 193 172 136 119 101 46 61 75 81 78 69 65 63
146 150 162 176 189 198 202 203 207 214 216 208 200 185 163 170 192 199 201 204 206 207 205 198 192 192 196 199 199 200 205 213 217 213 210 210 211 212 209 202 194 190 189 190 189 187 187 191 190 193 206 214 178 121 107 109 100 105 173 179 183 198 187 148 132 147 153 87 90 92 85 75 71 68
122 145 156 164 174 187 197 197 195 191 192 200 199 192 176 165 182 196 198 200 205 209 207 200 195 196 198 199 200 204 212 221 225 219 216 216 216 214 214 215 214 209 205 205 206 207 211 210 199 199 217 226 183 143 164 157 134 116 201 193 186 196 190 161 149 165 176 122 114 111 89 81 85 82
93 122 146 159 170 179 183 184 181 175 167 175 191 195 191 178 181 195 197 197 201 204 203 201 200 200 199 199 203 209 218 225 225 219 214 215 216 216 215 218 223 226 222 216 214 214 215 216 215 216 226 228 201 199 242 203 160 143 24 219 194 199 191 174 172 179 166 124 121 113 94 92 101 95
70 87 107 130 162 184 190 189 185 182 178 163 173 192 197 190 183 196 200 200 200 198 196 199 203 202 199 200 206 214 222 224 221 216 210 206 207 210 212 215 220 226 230 227 225 223 222 222 220 219 225 228 209 203 233 219 181 165 122 228 197 196 183 176 181 179 155 133 123 96 84 97 109 98
54 61 77 95 119 181 201 205 204 202 203 188 169 187 198 199 198 205 205 201 197 196 197 200 200 198 197 201 208 216 217 217 216 211 207 204 203 205 210 213 216 221 226 226 223 222 223 225 221 215 222 228 218 210 222 218 201 196 187 122 144 171 173 179 187 181 165 160 151 111 92 101 104 97
46 48 60 78 94 144 192 205 210 214 221 222 197 184 195 203 209 210 206 200 195 195 196 195 192 191 194 202 210 213 210 210 212 210 206 207 210 211 213 215 217 220 221 217 213 211 212 214 213 211 217 225 223 221 225 221 212 209 191 134 120 140 160 167 181 179 168 163 150 128 117 120 108 99
50 52 57 66 73 124 182 196 202 211 223 228 216 188 192 203 211 210 208 204 197 191 187 186 186 190 197 205 208 209 208 209 212 212 210 211 213 214 215 216 218 221 220 217 215 212 208 205 204 208 216 221 212 206 216 225 226 218 195 154 138 158 169 147 134 143 147 144 142 142 147 143 123 111